sat.trackr.live / text

‹ back to catalog

YAOGAN-43 01G

NORAD 60464 · 2024-148G

PAYLOAD ACTIVE UNKNOWN

§ Identity

Operator
Country
PRC
Launch date
2024-08-16
Launch site
XICLF
Launch vehicle
Mass (kg)
RCS (m²)

External: N2YO · Heavens-Above · Gunter

§ Orbital elements

Epoch: 2026-09-22T23:46:45.994368Z

Period
94.06 min
Inclination
35.0026°
Eccentricity
0.0006396
Mean motion
15.30940460 rev/d
Perigee alt
468.6 km
Apogee alt
477.4 km
Semi-major
6,851.1 km
B*
1.9061e-4
RAAN
246.7957°
Arg perigee
321.4378°
Mean anomaly
38.5882°
Rev number
11,727

§ Raw data

YAOGAN-43 01G1 60464U 24148G   26265.99081012  .00005814  00000+0  19061-3 0  99972 60464  35.0026 246.7957 0006396 321.4378  38.5882 15.30940460117274

JSON: /api/v1/satellites/60464 · /tle

For live sub-satellite position, see the globe view (requires WebGL).

§ Visibility from observer

Set your observer location to see the next 7 days of passes ≥ 10°. The values pass through the URL so the page stays shareable.

No JS? Fill the form by hand. The geolocation button needs JavaScript.